SL-14 DEB

Satellite information

Favourite Embed

Satellite Type and Status

DEBRISIN ORBIT

Key statistics

Satellite SL-14 DEB at a glance.

Uptime

13782

Days in orbit

Revolutions

≈ 14.2

Per day

Orbit

LEO

Low Earth Orbit

Inclination

82.5

Latest

Satellite identification and parameters

Extended collection of information and parameters for SL-14 DEB.

Object identification

Identified? True

Debris? True

Object name: SL-14 DEB

International designator: 1987-068DA

Object number (NORAD): 39974

Object ID (CCSDS): 39974

Country: COMMONWEALTH OF INDEPENDENT STATES (CIS)

Current information (Y/N): Y

RCS size: SMALL

Orbital parameters

Period: 101.738 minutes

Inclination: 82.5389 deg

SMA: 7219.07 km

Apoapsis: 851.235 km

Periapsis: 830.634 km

RAAN: 50.6853 deg

Eccentricy: 0.0014268

Argument of periapsis: 169.6889 deg

Mean anomaly: 256.7979 deg

Mean motion: 14.15405632 rev/day

Mean motion (dot): 0.00003455 rev/day2

B* drag term: 0.0017627 1/REarth

Two-line elements (TLE)

Creation date: May 6, 2025, 3:54 a.m.

Reference frame: TEME

Reference center: EARTH

Epoch: May 5, 2025, 3:24 a.m. UTC

TLE line 0: 0 SL-14 DEB

TLE line 1: 1 39974U 87068DA 25125.14195668 .00003455 00000-0 17627-2 0 9998

TLE line 2: 2 39974 82.5389 50.6853 0014268 169.6889 256.7979 14.15405632560113

Live tracking on map

Real-time ground track for satellite SL-14 DEB.

In-orbit conjunctions

A list of the most updated potential collisions computed for object SL-14 DEB.

Target Orbit TCA Probability of collision Miss distance Type
FENGYUN 1C DEB SSO 2024-12-12 00:34:16 0.0001704249 47.0 (m) DEBRIS
CZ-6A DEB LEO 2024-11-25 11:10:57 0.0001953643 164.0 (m) DEBRIS

Associated space launch

Second generation soviet meteorological satellite

SL-14 DEB was lifted into orbit during the mission ‘Tsiklon-3 | Meteor-2 16’, on board a Tsiklon-3 space rocket.

The launch took place on Aug. 18, 1987, 2:27 a.m. from 32/1.

For more information about the launch, click the button.

Launch to space Tsiklon-3 | Meteor-2 16
Tsiklon-3 | Meteor-2 16

Agency: N/A

Status: Launch Successful

Launch date: Aug. 18, 1987, 2:27 a.m. UTC

Rocket: Tsiklon-3

Launch pad: 32/1

Location: Plesetsk Cosmodrome, Russian Federation

...

Latest news about this satellite

There are no fresh news available about this satellite. Check back as we update our databases every day.


Newsletter sign-up

Weekly statistics, charts and insights to help you stay on top of the space industry.